Location: Seattle
(47.6064°N, 122.3308°W)
Time: 10:17:57
(UTC-07:00)

Explorer 7 - Visible Passes

Search period start: 01 August 2021 00:00
Search period end: 11 August 2021 00:00
Orbit: 484 x 676 km, 50.3° (Epoch: 01 August)

Date Brightness Start Highest point End Pass type
(mag) Time Alt. Az. Time Alt. Az. Time Alt. Az.
02 Aug 8.9 04:42:27 10° S 04:44:45 16° SE 04:47:05 10° E visible
03 Aug 8.3 04:45:47 10° SSW 04:48:50 23° SE 04:51:57 10° E visible
04 Aug 7.7 04:49:49 12° SSW 04:52:58 35° SE 04:56:31 10° E visible
05 Aug 9.1 03:17:40 11° SE 03:17:40 11° SE 03:18:23 10° ESE visible
05 Aug 7.1 04:53:56 13° SW 04:57:11 51° SSE 05:00:57 10° ENE visible
06 Aug 8.6 03:21:44 17° SE 03:21:44 17° SE 03:24:02 10° E visible
06 Aug 6.7 04:58:01 12° WSW 05:01:26 72° SSE 05:05:18 10° ENE visible
07 Aug 8.0 03:25:47 25° SE 03:25:47 25° SE 03:28:48 10° E visible
07 Aug 6.6 05:02:03 10° WSW 05:05:44 86° NNW 05:09:38 10° ENE visible
08 Aug 7.3 03:29:48 38° SE 03:29:48 38° SE 03:33:20 10° ENE visible
08 Aug 6.8 05:06:20 10° W 05:10:05 70° NNW 05:13:58 10° ENE visible
09 Aug 6.7 03:33:47 54° SSE 03:34:00 55° SSE 03:37:44 10° ENE visible
09 Aug 7.0 05:10:44 10° W 05:14:28 60° N 05:18:19 10° ENE visible
10 Aug 6.4 03:37:46 63° SW 03:38:16 77° SSE 03:42:05 10° ENE visible
10 Aug 7.2 05:15:08 10° W 05:18:51 56° N 05:22:41 10° ENE visible
